Zurück zum Katalog

XINGJIYUAN-1

AktivWissenschaftSSO
NORAD 64090·PAYLOAD·🇨🇳 China
Dieser Satellitenname wurde noch nicht durch offizielle Quellen bestätigt.

Gestartet May 21, 2025 von Jiuquan Satellite Launch Center

Loading…

Nächste Überflüge (nächste 24 Stunden)

TLE

AktuellSource: Space-Track

Epoche: Sep 14, 2026, 22:59 UTC

1 64090U 25108D   26257.95806774  .00004879  00000-0  23201-3 0  9992
2 64090  97.4618 332.5537 0013151  56.7415 303.5078 15.19585802 72990

Verfolge XINGJIYUAN-1 in Echtzeit mit AllMySat

Download on the App Store